Location: Unspecified
(50.7693°N, 0.0000°E)
Time: 11:49:40
(UTC+00:00)

SR - Pass Details

Date: 30 June 2019
Orbit: 578 x 878 km, 66.7° (Epoch: 16 August)

Event Time Altitude Azimuth Distance (km) Brightness Sun altitude
Rises 06:48:02 0° 317° (NW) 2,906 ? 24.6°
Reaches altitude 10° 06:51:36 10° 347° (NNW) 2,058 ? 25.2°
Maximum altitude 06:53:37 13° 13° (NNE) 1,925 ? 25.5°
Drops below altitude 10° 06:55:42 10° 39° (NE) 2,134 ? 25.8°
Sets 06:59:34 0° 68° (ENE) 3,130 ? 26.5°
